Location: Niverville
(49.6028°N, 97.0419°W)
Time: 02:44:24
(UTC-05:00)

ISS - All Passes

Search period start: 27 July 2016 00:00
Search period end: 06 August 2016 00:00
Orbit: 401 x 404 km, 51.6° (Epoch: 27 July)

Date Brightness Start Highest point End Pass type
(mag) Time Alt. Az. Time Alt. Az. Time Alt. Az.
27 Jul - 01:16:57 10° W 01:20:11 58° N 01:23:26 10° ENE visible
27 Jul - 02:53:31 10° WNW 02:56:48 82° NNE 03:00:04 10° ESE visible
27 Jul - 04:30:11 10° W 04:33:01 27° SW 04:35:49 10° SSE visible
27 Jul - 22:47:43 10° SW 22:50:49 43° SSE 22:53:56 10° ENE visible
28 Jul - 00:23:57 10° W 00:27:11 66° N 00:30:27 10° ENE visible
28 Jul - 02:00:34 10° WNW 02:03:49 66° N 02:07:05 10° E visible
28 Jul - 03:37:06 10° WNW 03:40:12 42° SSW 03:43:19 10° SE visible
28 Jul - 21:55:11 10° SSW 21:58:00 27° SE 22:00:50 10° E visible
28 Jul - 23:30:57 10° WSW 23:34:13 82° NNW 23:37:30 10° ENE visible
29 Jul - 01:07:36 10° WNW 01:10:50 58° N 01:14:03 10° E visible
29 Jul - 02:44:05 10° WNW 02:47:20 65° SSW 02:50:34 10° ESE visible
29 Jul - 04:21:21 10° WSW 04:23:17 15° SW 04:25:13 10° S night (unlit)
29 Jul - 21:03:02 10° S 21:05:15 17° SE 21:07:29 10° E daylight
29 Jul - 22:38:02 10° WSW 22:41:16 73° SSE 22:44:32 10° ENE visible
30 Jul - 00:14:35 10° W 00:17:49 57° N 00:21:02 10° ENE visible
30 Jul - 01:51:07 10° WNW 01:54:24 89° N 01:57:40 10° ESE visible
30 Jul - 03:27:52 10° W 03:30:33 24° SW 03:33:15 10° SSE night (unlit)
30 Jul - 20:12:04 10° SE 20:12:35 10° SE 20:13:04 10° SE daylight
30 Jul - 21:45:13 10° SW 21:48:23 48° SSE 21:51:33 10° ENE visible
30 Jul - 23:21:33 10° W 23:24:48 63° N 23:28:03 10° ENE visible
31 Jul - 00:58:10 10° WNW 01:01:26 70° NNE 01:04:41 10° E visible
31 Jul - 02:34:42 10° W 02:37:46 37° SSW 02:40:49 10° SE visible
31 Jul - 20:52:37 10° SSW 20:55:32 31° SSE 20:58:28 10° E daylight
31 Jul - 22:28:32 10° W 22:31:48 76° NNW 22:35:04 10° ENE visible
01 Aug - 00:05:11 10° WNW 00:08:25 60° N 00:11:40 10° E visible
01 Aug - 01:41:40 10° WNW 01:44:54 58° SSW 01:48:07 10° SE visible
01 Aug - 03:19:14 10° WSW 03:20:47 13° SW 03:22:22 10° SSW night (unlit)
01 Aug - 20:00:20 10° S 20:02:46 20° SE 20:05:12 10° E daylight
01 Aug - 21:35:35 10° WSW 21:38:51 81° SSE 21:42:06 10° ENE daylight
01 Aug - 23:12:10 10° W 23:15:24 57° N 23:18:37 10° E visible
02 Aug - 00:48:42 10° WNW 00:51:59 85° SSW 00:55:14 10° ESE visible
02 Aug - 02:25:32 10° W 02:28:05 21° SW 02:30:36 10° SSE night (unlit)
02 Aug - 19:08:44 10° SSE 19:10:03 12° SE 19:11:23 10° ESE daylight
02 Aug - 20:42:44 10° SW 20:45:55 55° SSE 20:49:07 10° ENE daylight
02 Aug - 22:19:08 10° W 22:22:22 61° N 22:25:37 10° ENE visible
02 Aug - 23:55:44 10° WNW 23:59:00 74° NNE 00:02:16 10° E visible
03 Aug - 01:32:18 10° W 01:35:17 33° SSW 01:38:15 10° SSE visible
03 Aug - 19:50:03 10° SW 19:53:03 35° SSE 19:56:04 10° E daylight
03 Aug - 21:26:06 10° W 21:29:21 72° NNW 21:32:37 10° ENE daylight
03 Aug - 23:02:45 10° WNW 23:05:59 62° N 23:09:14 10° E visible
04 Aug - 00:39:14 10° WNW 00:42:26 52° SSW 00:45:36 10° SE visible
04 Aug - 02:17:14 10° WSW 02:18:16 11° SW 02:19:17 10° SSW night (unlit)
04 Aug - 18:57:38 10° SSW 19:00:15 22° SE 19:02:51 10° E daylight
04 Aug - 20:33:07 10° WSW 20:36:22 88° SSE 20:39:39 10° ENE daylight
04 Aug - 22:09:43 10° W 22:12:57 57° N 22:16:11 10° E visible
04 Aug - 23:46:15 10° WNW 23:49:30 77° SSW 23:52:46 10° ESE visible
05 Aug - 01:23:13 10° W 01:25:33 18° SW 01:27:53 10° S visible
05 Aug - 18:05:45 10° S 18:07:30 14° SE 18:09:16 10° ESE daylight
05 Aug - 19:40:12 10° WSW 19:43:25 62° SSE 19:46:40 10° ENE daylight
05 Aug - 21:16:41 10° W 21:19:55 59° N 21:23:09 10° ENE daylight
05 Aug - 22:53:15 10° WNW 22:56:32 79° NNE 22:59:48 10° ESE visible
